Location: Mentone
(34.5413°N, 85.5351°W)
Time: 12:45:56
(UTC-06:00)

Tiros 1 despin weight - Visible Passes

Search period start: 04 March 2015 00:00
Search period end: 14 March 2015 01:00
Orbit: 599 x 648 km, 48.2° (Epoch: 04 March)

Date Brightness Start Highest point End Pass type
(mag) Time Alt. Az. Time Alt. Az. Time Alt. Az.
04 Mar ? 03:41:08 29° ESE 03:41:08 29° ESE 03:44:04 10° ENE visible
04 Mar ? 05:18:19 15° W 05:21:39 41° NNW 05:25:55 10° NE visible
05 Mar ? 03:59:04 58° ENE 03:59:04 58° ENE 04:02:46 10° NE visible
05 Mar ? 05:36:37 10° W 05:40:21 25° NNW 05:44:04 10° NNE visible
06 Mar ? 04:16:54 54° NNW 04:16:54 54° NNW 04:21:08 10° NE visible
07 Mar ? 02:57:27 12° ENE 02:57:27 12° ENE 02:57:49 10° ENE visible
07 Mar ? 04:34:37 29° NW 04:35:19 31° NNW 04:39:18 10° NE visible
08 Mar ? 04:15:05 18° NE 04:15:05 18° NE 04:16:16 10° NE visible
08 Mar ? 05:52:16 16° NW 05:54:04 20° NNW 05:57:26 10° NNE visible
09 Mar ? 04:32:40 22° NNE 04:32:40 22° NNE 04:34:31 10° NE visible
09 Mar ? 06:10:13 10° NW 06:12:57 16° N 06:15:41 10° NNE visible
10 Mar ? 04:50:11 21° N 04:50:11 21° N 04:52:38 10° NNE visible
10 Mar ? 06:29:31 10° NW 06:31:53 14° N 06:34:16 10° NNE visible
11 Mar ? 05:07:40 17° NNW 05:07:48 17° NNW 05:10:47 10° NNE visible
12 Mar ? 05:25:07 12° NNW 05:26:42 14° N 05:29:09 10° NNE visible
13 Mar ? 04:05:23 12° NNE 04:05:23 12° NNE 04:05:56 10° NNE visible
13 Mar ? 05:43:18 10° NNW 05:45:39 14° N 05:48:01 10° NE visible
